Time,TemperatureF,DewpointF,PressureIn,WindDirection,WindDirectionDegrees,WindSpeedMPH,WindSpeedGustMPH,Humidity,HourlyPrecipIn,Conditions,Clouds,dailyrainin,SolarRadiationWatts/m^2,SoftwareType,DateUTC
2014-03-06 00:03:00,42.0,36.0,-100.00,NNW,348,9.0,19.0,80,0.00,,,0.00,0.000000,,2014-03-06 06:03:00,
2014-03-06 00:42:00,42.0,37.0,-100.00,NNW,343,7.0,14.0,81,0.00,,,0.00,0.000000,,2014-03-06 06:42:00,
2014-03-06 00:52:00,42.0,37.0,-100.00,NNW,343,7.0,14.0,81,0.00,,,0.00,0.000000,,2014-03-06 06:52:00,
2014-03-06 01:02:00,42.0,37.0,-100.00,NNW,343,7.0,14.0,81,0.00,,,0.00,0.000000,,2014-03-06 07:02:00,
2014-03-06 01:42:00,41.0,36.0,-100.00,NNW,337,7.0,14.0,83,0.00,,,0.00,0.000000,,2014-03-06 07:42:00,
2014-03-06 01:52:00,41.0,36.0,-100.00,NNW,337,7.0,14.0,83,0.00,,,0.00,0.000000,,2014-03-06 07:52:00,
2014-03-06 02:01:00,41.0,36.0,-100.00,NNW,337,7.0,14.0,83,0.00,,,0.00,0.000000,,2014-03-06 08:01:00,
2014-03-06 02:42:00,39.0,34.0,-100.00,North,359,8.0,15.0,82,0.00,,,0.00,0.000000,,2014-03-06 08:42:00,
2014-03-06 02:52:00,39.0,34.0,-100.00,North,359,8.0,15.0,82,0.00,,,0.00,0.000000,,2014-03-06 08:52:00,
2014-03-06 03:02:00,39.0,34.0,-100.00,North,359,8.0,15.0,82,0.00,,,0.00,0.000000,,2014-03-06 09:02:00,
2014-03-06 03:43:00,39.0,34.0,-100.00,NNW,334,7.0,13.0,83,0.00,,,0.00,0.000000,,2014-03-06 09:43:00,
2014-03-06 03:54:00,39.0,34.0,-100.00,NNW,334,7.0,13.0,83,0.00,,,0.00,0.000000,,2014-03-06 09:54:00,
2014-03-06 04:03:00,39.0,34.0,-100.00,NNW,334,7.0,13.0,83,0.00,,,0.00,0.000000,,2014-03-06 10:03:00,
2014-03-06 04:43:00,38.0,34.0,-100.00,NNW,347,8.0,13.0,85,0.00,,,0.00,0.000000,,2014-03-06 10:43:00,
2014-03-06 04:53:00,38.0,34.0,-100.00,NNW,347,8.0,13.0,85,0.00,,,0.00,0.000000,,2014-03-06 10:53:00,
2014-03-06 05:02:00,38.0,34.0,-100.00,NNW,347,8.0,13.0,85,0.00,,,0.00,0.000000,,2014-03-06 11:02:00,
2014-03-06 05:42:00,37.0,33.0,-100.00,NNW,338,9.0,13.0,86,0.00,,,0.00,0.000000,,2014-03-06 11:42:00,
2014-03-06 05:52:00,37.0,33.0,-100.00,NNW,338,9.0,13.0,86,0.00,,,0.00,0.000000,,2014-03-06 11:52:00,
2014-03-06 06:02:00,37.0,33.0,-100.00,NNW,338,9.0,13.0,86,0.00,,,0.00,0.000000,,2014-03-06 12:02:00,
2014-03-06 06:43:00,37.0,33.0,-100.00,WNW,296,6.0,12.0,85,0.00,,,0.00,0.000000,,2014-03-06 12:43:00,
2014-03-06 06:52:00,37.0,33.0,-100.00,WNW,296,6.0,12.0,85,0.00,,,0.00,0.000000,,2014-03-06 12:52:00,
2014-03-06 07:02:00,37.0,33.0,-100.00,WNW,296,6.0,12.0,85,0.00,,,0.00,0.000000,,2014-03-06 13:02:00,
2014-03-06 07:42:00,38.0,34.0,-100.00,WNW,291,7.0,11.0,85,0.00,,,0.00,1.000000,,2014-03-06 13:42:00,
2014-03-06 07:52:00,38.0,34.0,-100.00,WNW,291,7.0,11.0,85,0.00,,,0.00,1.000000,,2014-03-06 13:52:00,
2014-03-06 08:02:00,38.0,34.0,-100.00,WNW,291,7.0,11.0,85,0.00,,,0.00,1.000000,,2014-03-06 14:02:00,
2014-03-06 08:42:00,38.0,34.0,-100.00,NW,313,8.0,13.0,84,0.00,,,0.00,25.000000,,2014-03-06 14:42:00,
2014-03-06 08:52:00,38.0,34.0,-100.00,NW,313,8.0,13.0,84,0.00,,,0.00,25.000000,,2014-03-06 14:52:00,
2014-03-06 09:02:00,38.0,34.0,-100.00,NW,313,8.0,13.0,84,0.00,,,0.00,25.000000,,2014-03-06 15:02:00,
2014-03-06 09:43:00,39.0,33.0,-100.00,NW,305,7.0,12.0,80,0.00,,,0.00,85.000000,,2014-03-06 15:43:00,
2014-03-06 09:54:00,39.0,33.0,-100.00,NW,305,7.0,12.0,80,0.00,,,0.00,85.000000,,2014-03-06 15:54:00,
2014-03-06 10:04:00,39.0,33.0,-100.00,NW,305,7.0,12.0,80,0.00,,,0.00,85.000000,,2014-03-06 16:04:00,
2014-03-06 10:43:00,42.0,34.0,-100.00,NW,317,6.0,12.0,74,0.00,,,0.00,227.000000,,2014-03-06 16:43:00,
2014-03-06 10:53:00,42.0,34.0,-100.00,NW,317,6.0,12.0,74,0.00,,,0.00,227.000000,,2014-03-06 16:53:00,
2014-03-06 11:02:00,42.0,34.0,-100.00,NW,317,6.0,12.0,74,0.00,,,0.00,227.000000,,2014-03-06 17:02:00,
2014-03-06 11:43:00,46.0,34.0,-100.00,NW,309,6.0,11.0,63,0.00,,,0.00,596.000000,,2014-03-06 17:43:00,
2014-03-06 11:52:00,46.0,34.0,-100.00,NW,309,6.0,11.0,63,0.00,,,0.00,596.000000,,2014-03-06 17:52:00,
2014-03-06 12:02:00,46.0,34.0,-100.00,NW,309,6.0,11.0,63,0.00,,,0.00,596.000000,,2014-03-06 18:02:00,
2014-03-06 12:43:00,49.0,34.0,-100.00,NNW,335,5.0,11.0,56,0.00,,,0.00,951.000000,,2014-03-06 18:43:00,
2014-03-06 12:52:00,49.0,34.0,-100.00,NNW,335,5.0,11.0,56,0.00,,,0.00,951.000000,,2014-03-06 18:52:00,
2014-03-06 13:02:00,49.0,34.0,-100.00,NNW,335,5.0,11.0,56,0.00,,,0.00,951.000000,,2014-03-06 19:02:00,
2014-03-06 13:42:00,52.0,34.0,-100.00,NW,318,5.0,11.0,50,0.00,,,0.00,1000.000000,,2014-03-06 19:42:00,
2014-03-06 13:52:00,52.0,34.0,-100.00,NW,318,5.0,11.0,50,0.00,,,0.00,1000.000000,,2014-03-06 19:52:00,
2014-03-06 14:02:00,52.0,34.0,-100.00,NW,318,5.0,11.0,50,0.00,,,0.00,1000.000000,,2014-03-06 20:02:00,
2014-03-06 14:42:00,56.0,34.0,-100.00,NNE,16,4.0,12.0,44,0.00,,,0.00,960.000000,,2014-03-06 20:42:00,
2014-03-06 14:52:00,56.0,34.0,-100.00,NNE,16,4.0,12.0,44,0.00,,,0.00,960.000000,,2014-03-06 20:52:00,
2014-03-06 15:02:00,56.0,34.0,-100.00,NNE,16,4.0,12.0,44,0.00,,,0.00,960.000000,,2014-03-06 21:02:00,
2014-03-06 15:43:00,59.0,34.0,-100.00,ESE,105,2.0,16.0,39,0.00,,,0.00,858.000000,,2014-03-06 21:43:00,
2014-03-06 15:53:00,59.0,34.0,-100.00,ESE,105,2.0,16.0,39,0.00,,,0.00,858.000000,,2014-03-06 21:53:00,
2014-03-06 16:03:00,59.0,34.0,-100.00,ESE,105,2.0,16.0,39,0.00,,,0.00,858.000000,,2014-03-06 22:03:00,
2014-03-06 16:43:00,60.0,32.0,-100.00,ESE,118,4.0,8.0,35,0.00,,,0.00,687.000000,,2014-03-06 22:43:00,
2014-03-06 16:53:00,60.0,32.0,-100.00,ESE,118,4.0,8.0,35,0.00,,,0.00,687.000000,,2014-03-06 22:53:00,
2014-03-06 17:03:00,60.0,32.0,-100.00,ESE,118,4.0,8.0,35,0.00,,,0.00,687.000000,,2014-03-06 23:03:00,
2014-03-06 17:42:00,59.0,33.0,-100.00,East,93,5.0,10.0,37,0.00,,,0.00,469.000000,,2014-03-06 23:42:00,
2014-03-06 17:53:00,59.0,33.0,-100.00,East,93,5.0,10.0,37,0.00,,,0.00,469.000000,,2014-03-06 23:53:00,
2014-03-06 18:02:00,59.0,33.0,-100.00,East,93,5.0,10.0,37,0.00,,,0.00,469.000000,,2014-03-07 00:02:00,
2014-03-06 18:42:00,56.0,33.0,-100.00,ENE,70,4.0,10.0,41,0.00,,,0.00,210.000000,,2014-03-07 00:42:00,
2014-03-06 18:52:00,56.0,33.0,-100.00,ENE,70,4.0,10.0,41,0.00,,,0.00,210.000000,,2014-03-07 00:52:00,
2014-03-06 19:02:00,56.0,33.0,-100.00,ENE,70,4.0,10.0,41,0.00,,,0.00,210.000000,,2014-03-07 01:02:00,
2014-03-06 19:42:00,52.0,33.0,-100.00,ESE,104,3.0,6.0,48,0.00,,,0.00,9.000000,,2014-03-07 01:42:00,
2014-03-06 19:52:00,52.0,33.0,-100.00,ESE,104,3.0,6.0,48,0.00,,,0.00,9.000000,,2014-03-07 01:52:00,
2014-03-06 20:02:00,52.0,33.0,-100.00,ESE,104,3.0,6.0,48,0.00,,,0.00,9.000000,,2014-03-07 02:02:00,
2014-03-06 20:42:00,50.0,33.0,-100.00,SE,125,4.0,7.0,52,0.00,,,0.00,0.000000,,2014-03-07 02:42:00,
2014-03-06 20:52:00,50.0,33.0,-100.00,SE,125,4.0,7.0,52,0.00,,,0.00,0.000000,,2014-03-07 02:52:00,
2014-03-06 21:02:00,50.0,33.0,-100.00,SE,125,4.0,7.0,52,0.00,,,0.00,0.000000,,2014-03-07 03:02:00,
2014-03-06 21:44:00,48.0,33.0,-100.00,SE,141,6.0,9.0,56,0.00,,,0.00,0.000000,,2014-03-07 03:44:00,
2014-03-06 21:53:00,48.0,33.0,-100.00,SE,141,6.0,9.0,56,0.00,,,0.00,0.000000,,2014-03-07 03:53:00,
2014-03-06 22:04:00,48.0,33.0,-100.00,SE,141,6.0,9.0,56,0.00,,,0.00,0.000000,,2014-03-07 04:04:00,
2014-03-06 22:43:00,48.0,34.0,-100.00,SE,136,7.0,10.0,57,0.00,,,0.00,0.000000,,2014-03-07 04:43:00,
2014-03-06 22:53:00,48.0,34.0,-100.00,SE,136,7.0,10.0,57,0.00,,,0.00,0.000000,,2014-03-07 04:53:00,
2014-03-06 23:02:00,48.0,34.0,-100.00,SE,136,7.0,10.0,57,0.00,,,0.00,0.000000,,2014-03-07 05:02:00,
2014-03-06 23:43:00,47.0,34.0,-100.00,SE,134,8.0,12.0,60,0.00,,,0.00,0.000000,,2014-03-07 05:43:00,
2014-03-06 23:53:00,47.0,34.0,-100.00,SE,134,8.0,12.0,60,0.00,,,0.00,0.000000,,2014-03-07 05:53:00,